User: anonymous   Login
Location: Holcomb Observatory
(44.4922°N, 73.1654°W)
Time: 02:33:08
(UTC-04:00)
Language:

SL-16 R/B - Orbit

View from above orbital plane
View from above orbital plane
View from above satellite
View from above satellite

Ground track
Ground track

The orbit data is extracted from the following two-line orbital elements,

1 27006U 01056F   15181.11558413 -.00000013  00000-0  32153-4 0  9994
2 27006 099.2089 337.3874 0015011 027.3822 101.7466 13.70959017678100
Epoch (UTC): 30 June 2015 02:46:26
Eccentricity: 0.0015011
inclination: 99.2089°
perigee height: 985 km
apogee height: 1007 km
right ascension of ascending node: 337.3874°
argument of perigee: 27.3822°
revolutions per day: 13.70959017
mean anomaly at epoch: 101.7466°
orbit number at epoch: 67810

The dashed part of the orbit path shows where the satellite is in the earth's shadow,  

DLR